Content
SEND FEEDBACK

Daily
Averages
Monthly
Summary
Russia

MINERAL'NYE VODY, RUSSIA


Home > Europe > Russia
Elevation: 1030 feet     Latitude: 44 13N     Longitude: 043 06E

WEATHER
 
SELECT A DAY
Number of Records: 200,457;   Date Range: 3/24/97 - 8/30/14
 
SHARE

PRINT THIS DATA

[ ← Previous Day ]
WEATHER ALMANAC - JANUARY 31, 2013
[ Next Day → ]
[ °C ]   °F
Weather ElementAverageHighLow
Temperature34.8 °F42.8 °F (4:00 pm)32 °F (2:30 am)
Dewpoint32.5 °F37 °F (1:00 pm)30.2 °F (2:30 am)
Humidity91.2 %100 % (9:30 am)61 % (4:00 pm)
Barometer29.88 in30.01 in (1:00 am)29.80 in (3:30 pm)
Wind Speed2.8 mph11.2 mph (11:00 pm)
Wind Gust11.2 mph (3:30 pm)
Weather ElementAverage
Visibility4.5 mi
Wind DirectionENE (62.4 °)

Weather ElementTotal
Precipitation---
Heating Degree Days27.6 (Base 65)
Averaged from 54 records on January 31, 2013
WEATHER CONDITIONS BREAKOUT
WIND DIRECTION BREAKOUT
WEATHER BY HOUR - JANUARY 31, 2013
[ °C ]   °F
Local TimeTemperatureDewpointHumidityBarometerVisibilityWind DirectionWind SpeedGust SpeedPrecipitationEventsConditions
12:30 AM33.8 °F32.0 °F93 %29.95 in6.2 miCalmOvercast
1:00 AM33.0 °F32.0 °F93 %30.01 in2.0 miCalmMist
1:00 AM33.8 °F32.0 °F93 %29.95 in6.2 miCalmOvercast
1:30 AM33.8 °F32.0 °F93 %29.95 in6.2 miCalmOvercast
2:00 AM33.8 °F32.0 °F93 %29.95 in6.2 miCalmOvercast
2:30 AM32.0 °F30.2 °F93 %29.95 in6.2 miCalmOvercast
3:00 AM32.0 °F30.2 °F93 %29.95 in6.2 miCalmOvercast
3:30 AM32.0 °F30.2 °F93 %29.92 in6.2 miCalmOvercast
4:00 AM33.0 °F31.0 °F92 %30.01 in2.0 miCalmMist
4:00 AM32.0 °F30.2 °F93 %29.92 in6.2 miCalmOvercast
4:30 AM32.0 °F30.2 °F93 %29.92 in6.2 miCalmOvercast
5:00 AM32.0 °F30.2 °F93 %29.92 in6.2 miCalmOvercast
5:30 AM32.0 °F30.2 °F93 %29.92 in4.3 miCalmMostly Cloudy
6:00 AM32.0 °F30.2 °F93 %29.92 in4.3 miCalmMostly Cloudy
6:30 AM32.0 °F30.2 °F93 %29.92 in4.3 miCalmMostly Cloudy
7:00 AM32.0 °F30.2 °F93 %29.92 in4.3 miCalmMostly Cloudy
7:30 AM32.0 °F30.2 °F93 %29.92 in4.3 miCalmMostly Cloudy
8:00 AM32.0 °F30.2 °F93 %29.92 in4.3 miCalmMostly Cloudy
8:30 AM32.0 °F30.2 °F93 %29.92 in3.7 miEast (100°)2.2 mphMostly Cloudy
9:00 AM32.0 °F30.2 °F93 %29.92 in3.1 miVariable2.2 mphOvercast
9:30 AM32.0 °F32.0 °F100 %29.92 in3.1 miCalmOvercast
10:00 AM33.0 °F32.0 °F92 %29.99 in2.0 miNE (50°)2.2 mphMist
10:00 AM32.0 °F32.0 °F100 %29.92 inCalmMostly Cloudy
10:30 AM33.8 °F32.0 °F93 %29.92 in3.1 miCalmMostly Cloudy
11:00 AM33.8 °F33.8 °F100 %29.89 in3.7 miVariable2.2 mphMostly Cloudy
11:30 AM35.6 °F33.8 °F93 %29.89 in3.7 miESE (120°)2.2 mphMostly Cloudy
12:00 PM35.6 °F33.8 °F93 %29.89 in3.7 miVariable2.2 mphMostly Cloudy
12:30 PM37.4 °F35.6 °F93 %29.86 in3.7 miVariable2.2 mphMostly Cloudy
1:00 PM39.0 °F37.0 °F88 %29.93 in12.0 miSSE (150°)2.2 mphPartly Cloudy
1:00 PM39.2 °F35.6 °F87 %29.86 in6.2 miVariable2.2 mphMostly Cloudy
1:30 PM39.2 °F35.6 °F87 %29.86 in6.2 miVariable2.2 mphMostly Cloudy
2:00 PM41.0 °F35.6 °F81 %29.83 in6.2 miNNW (330°)4.5 mph8.9 mphMostly Cloudy
2:30 PM41.0 °F35.6 °F81 %29.83 in6.2 miNW (310°)6.7 mphMostly Cloudy
3:00 PM41.0 °F35.6 °F81 %29.83 in6.2 miNorth (350°)6.7 mphMostly Cloudy
3:30 PM41.0 °F35.6 °F81 %29.80 in6.2 miNNE (20°)6.7 mph11.2 mphMostly Cloudy
4:00 PM42.0 °F33.0 °F61 %29.88 in12.0 miCalmOvercast
4:00 PM42.8 °F35.6 °F76 %29.83 in6.2 miVariable2.2 mphMostly Cloudy
4:30 PM42.8 °F35.6 °F76 %29.80 in6.2 miSouth (170°)4.5 mphMostly Cloudy
5:00 PM41.0 °F33.8 °F76 %29.80 in6.2 miSSE (160°)2.2 mphMostly Cloudy
5:30 PM41.0 °F35.6 °F81 %29.80 in6.2 miENE (60°)4.5 mphMostly Cloudy
6:00 PM37.4 °F35.6 °F93 %29.80 in6.2 miESE (110°)8.9 mphMostly Cloudy
6:30 PM35.6 °F33.8 °F93 %29.80 in4.3 miEast (100°)6.7 mphMostly Cloudy
7:00 PM36.0 °F34.0 °F87 %29.88 in2.0 miEast (80°)4.5 mphMist
7:00 PM33.8 °F32.0 °F93 %29.80 in3.1 miESE (110°)4.5 mphMostly Cloudy
7:30 PM32.0 °F32.0 °F100 %29.80 inEast (100°)6.7 mphMostly Cloudy
8:00 PM33.8 °F33.8 °F100 %29.80 in1.9 miEast (100°)6.7 mphMostly Cloudy
8:30 PM33.8 °F32.0 °F93 %29.80 in1.9 miEast (90°)4.5 mphMostly Cloudy
9:00 PM32.0 °F32.0 °F100 %29.80 in1.6 miEast (90°)4.5 mphScattered Clouds
9:30 PM32.0 °F32.0 °F100 %29.80 in0.7 miESE (120°)6.7 mphOvercast
10:00 PM32.0 °F31.0 °F96 %29.88 in2.0 miNE (50°)6.7 mphMist
10:00 PM32.0 °F30.2 °F93 %29.80 in1.1 miESE (110°)4.5 mphOvercast
10:30 PM32.0 °F32.0 °F100 %29.80 in0.2 miEast (80°)6.7 mph11.2 mphFogFog
11:00 PM32.0 °F32.0 °F100 %29.80 in0.1 miEast (100°)11.2 mphFogFog
11:30 PM32.0 °F32.0 °F100 %29.80 in0.2 miESE (120°)6.7 mphFogFog
Hourly data recorded from URMM, located miles away from Mineral'nye Vody, Russia







STORIES FROM OUR PARTNERS